Location: Atbuku
(36.4936°N, 30.4362°E)
Time: 02:43:51
(UTC+00:00)

Cosmos 1937 Rocket - Pass Details

Date: 11 December 2025
Orbit: 743 x 775 km, 74.0° (Epoch: 14 January)

Event Time Altitude Azimuth Distance (km) Brightness Sun altitude
Rises 16:58:18 0° 212° (SSW) 3,206 7.3 -26.4°
Reaches altitude 10° 17:00:45 10° 218° (SW) 2,279 6.5 -26.9°
Maximum altitude 17:05:43 46° 292° (WNW) 1,001 4.3 -27.9°
Enters shadow 17:07:33 33° 341° (NNW) 1,258 4.6 -28.2°
